User: anonymous   Login
Location: Caltech
(34.1382°N, 118.1253°W)
Time: 01:28:48
(UTC-07:00)
Language:

SL-8 R/B - Orbit

View from above orbital plane
View from above orbital plane
View from above satellite
View from above satellite

Ground track
Ground track

The orbit data is extracted from the following two-line orbital elements,

1 29659U 06060B   14089.77891928  .13965905  29953-5  13611-3 0  3176
2 29659 098.0604 046.5515 0017182 208.4956 152.6319 16.50219486408189
Epoch (UTC): 30 March 2014 18:41:38
Eccentricity: 0.0017182
inclination: 98.0604°
perigee height: 127 km
apogee height: 150 km
right ascension of ascending node: 46.5515°
argument of perigee: 208.4956°
revolutions per day: 16.50219486
mean anomaly at epoch: 152.6319°
orbit number at epoch: 40818

The dashed part of the orbit path shows where the satellite is in the earth's shadow,  

DLR